Zurück zum Katalog

DMSP 5D-2 F13 DEB

AktivSSO
NORAD 40478·DEBRIS·🇺🇸 United States

Gestartet Mar 24, 1995 von Vandenberg Space Force Base

Loading…

Nächste Überflüge (nächste 24 Stunden)

TLE

AktuellSource: Space-Track

Epoche: Sep 14, 2026, 14:19 UTC

1 40478U 95015BW  26257.59677576  .00002362  00000-0  11778-2 0  9996
2 40478  98.9985 210.2974 0064714 307.1007  52.4263 14.16813352589804

Verfolge DMSP 5D-2 F13 DEB in Echtzeit mit AllMySat

Download on the App Store